Weather History for KFQD - August, 2013

Change the Weather History Date:

Tuesday, August 13, 2013

  Actual Average (KAVL) Record (KAVL)
Temperature  
Mean Temperature 76 °F 73 °F  
Max Temperature 84 °F 83 °F 94 °F (1925)
Min Temperature 68 °F 63 °F 49 °F (1890)
Degree Days  
Heating Degree Days 0 0  
Month to date heating degree days 0  
Since 1 June heating degree days 14  
Since 1 July heating degree days 0  
Cooling Degree Days 11 8  
Month to date cooling degree days 115  
Year to date cooling degree days 625  
Since 1 June cooling degree days 567  
Growing Degree Days 26 (Base 50)    
Moisture  
Dew Point 71 °F    
Average Humidity 87    
Maximum Humidity 100    
Minimum Humidity 63    
Precipitation  
Precipitation 0.00 in 0.14 in 3.62 in (1940)
Month to date precipitation 1.85  
Year to date precipitation 29.06  
Snow  
Snow 0.00 in 0.00 in 0.00 in ()
Month to date snowfall 0.0  
Since 1 June snowfall 0.0  
Since 1 July snowfall 0.0  
Snow Depth -    
Sea Level Pressure  
Sea Level Pressure 29.93 in    
Wind  
Wind Speed 2 mph (SW)    
Max Wind Speed 12 mph    
Max Gust Speed 17 mph    
Visibility 7 miles    
Events Fog , Rain , Thunderstorm    
T = Trace of Precipitation, MM = Missing Value Source: NWS Daily Summary

Daily Weather History Graph

Daily Weather History Graph

Search for Another Location

Airport or City:

Trip Planner

Search our weather history database for the weather conditions in past years. The results will help you decide how hot, cold, wet, or windy it might be!

Date:

Astronomy

Aug. 13, 2013 Rise Set
Actual Time 6:45 AM EDT 8:18 PM EDT
Civil Twilight 6:18 AM EDT 8:45 PM EDT
Nautical Twilight 5:46 AM EDT 9:18 PM EDT
Astronomical Twilight 5:11 AM EDT 9:52 PM EDT
Moon 1:22 PM EDT (8/13) No Moon Set
Length of Visible Light 14h 27m
Length of Day
13h 33m
Waxing Crescent, 41% of the Moon is Illuminated
Aug 13
Waxing Crescent
Aug 14
First Quarter
Aug 20
Full
Aug 28
Last Quarter
Sep 5
New

Hourly Weather History & Observations

Time (EDT) Temp. Heat Index Dew Point Humidity Pressure Visibility Wind Dir Wind Speed Gust Speed Precip Events Conditions
12:14 AM 71.6 °F - 69.8 °F 94% 30.01 in 10.0 mi Calm Calm - N/A   Clear
12:54 AM 69.8 °F - 69.8 °F 100% 30.00 in 5.0 mi Calm Calm - N/A   Scattered Clouds
1:56 AM 69.8 °F - 69.8 °F 100% 29.99 in 3.0 mi South 3.5 mph - N/A   Overcast
2:14 AM 69.8 °F - 69.8 °F 100% 29.98 in 7.0 mi Calm Calm - N/A   Scattered Clouds
2:34 AM 69.8 °F - 69.8 °F 100% 29.98 in 7.0 mi Calm Calm - N/A   Scattered Clouds
2:54 AM 69.8 °F - 69.8 °F 100% 29.97 in 1.0 mi West 9.2 mph - N/A   Overcast
3:16 AM 71.6 °F - 69.8 °F 94% 29.97 in 0.2 mi Calm Calm - N/A Fog Fog
3:34 AM 69.8 °F - 69.8 °F 100% 29.97 in 0.2 mi Calm Calm - N/A Fog Fog
3:54 AM 71.6 °F - 69.8 °F 94% 29.96 in 0.2 mi Calm Calm - N/A Fog Fog
4:14 AM 69.8 °F - 69.8 °F 100% 29.96 in 0.2 mi South 11.5 mph - N/A Fog Fog
4:36 AM 69.8 °F - 69.8 °F 100% 29.95 in 0.2 mi Calm Calm - N/A Fog Fog
4:54 AM 69.8 °F - 69.8 °F 100% 29.95 in 0.5 mi Calm Calm - N/A Fog Fog
5:17 AM 69.8 °F - 69.8 °F 100% 29.95 in 0.5 mi Calm Calm - N/A Fog Fog
5:34 AM 69.8 °F - 69.8 °F 100% 29.94 in 0.2 mi Calm Calm - N/A Fog Fog
6:14 AM 69.8 °F - 69.8 °F 100% 29.94 in 0.2 mi Calm Calm - N/A Fog Fog
6:34 AM 69.8 °F - 69.8 °F 100% 29.93 in 0.5 mi South 10.4 mph - N/A Fog Fog
6:54 AM 69.8 °F - 69.8 °F 100% 29.95 in 0.2 mi West 10.4 mph - N/A Fog Fog
6:55 AM 68.9 °F - 68.9 °F 100% 29.95 in 0.2 mi West 11.5 mph - N/A Fog Fog
7:15 AM 68.9 °F - 68.9 °F 100% 29.94 in 0.2 mi Calm Calm - N/A Fog Fog
7:35 AM 68.9 °F - 68.9 °F 100% 29.94 in 0.2 mi Calm Calm - N/A Fog Fog
7:55 AM 69.1 °F - 69.1 °F 100% 29.94 in 0.2 mi ESE 4.6 mph - N/A Fog Fog
8:15 AM 69.6 °F - 69.6 °F 100% 29.94 in 0.2 mi Calm Calm - N/A Fog Fog
8:35 AM 70.5 °F - 70.5 °F 100% 29.95 in 0.5 mi Calm Calm - N/A Fog Fog
8:55 AM 70.7 °F - 70.7 °F 100% 29.96 in 1.8 mi SW 6.9 mph - N/A   Overcast
9:15 AM 71.6 °F - 71.2 °F 99% 29.97 in 7.0 mi SSW 6.9 mph - N/A   Overcast
9:35 AM 73.4 °F - 71.8 °F 95% 29.97 in 10.0 mi WSW 3.5 mph - N/A   Mostly Cloudy
9:55 AM 73.6 °F - 70.9 °F 91% 29.96 in 10.0 mi Calm Calm - N/A Rain Light Rain
10:15 AM 73.6 °F - 71.1 °F 92% 29.95 in 10.0 mi Calm Calm - N/A   Overcast
10:35 AM 74.3 °F - 71.6 °F 91% 29.95 in 10.0 mi SSW 4.6 mph - N/A Rain Light Rain
10:55 AM 76.1 °F - 71.6 °F 86% 29.96 in 10.0 mi SW 3.5 mph - N/A   Mostly Cloudy
11:15 AM 77.2 °F - 72.1 °F 84% 29.96 in 10.0 mi SW 3.5 mph - N/A   Scattered Clouds
11:35 AM 79.0 °F - 72.9 °F 81% 29.96 in 10.0 mi WSW 4.6 mph - N/A   Scattered Clouds
11:55 AM 79.0 °F - 72.3 °F 80% 29.97 in 10.0 mi SW 4.6 mph - N/A   Scattered Clouds
12:15 PM 79.3 °F - 72.9 °F 80% 29.96 in 10.0 mi Calm Calm - N/A   Mostly Cloudy
12:35 PM 78.4 °F - 71.6 °F 79% 29.95 in 10.0 mi Calm Calm - N/A Rain Light Rain
12:55 PM 79.0 °F - 72.9 °F 81% 29.94 in 10.0 mi Calm Calm - N/A   Mostly Cloudy
1:15 PM 80.2 °F 84.2 °F 72.0 °F 76% 29.94 in 10.0 mi West 3.5 mph - N/A   Clear
1:35 PM 81.3 °F 85.6 °F 71.6 °F 72% 29.93 in 10.0 mi SW 4.6 mph - N/A   Scattered Clouds
1:55 PM 81.1 °F 84.5 °F 69.6 °F 68% 29.92 in 10.0 mi WSW 3.5 mph - N/A   Clear
2:15 PM 81.5 °F 85.5 °F 70.9 °F 70% 29.92 in 10.0 mi WSW 4.6 mph - N/A   Clear
2:35 PM 83.5 °F 89.7 °F 73.2 °F 71% 29.92 in 10.0 mi South 6.9 mph - N/A   Clear
2:55 PM 83.3 °F 89.3 °F 73.0 °F 71% 29.91 in 10.0 mi WSW 4.6 mph - N/A   Clear
3:15 PM 84.0 °F 89.9 °F 72.3 °F 68% 29.90 in 10.0 mi SW 8.1 mph 17.3 mph N/A   Clear
3:35 PM 84.9 °F 90.1 °F 71.2 °F 63% 29.89 in 10.0 mi SW 4.6 mph - N/A   Clear
3:55 PM 84.6 °F 89.4 °F 70.9 °F 63% 29.88 in 10.0 mi WSW 4.6 mph - N/A   Scattered Clouds
4:15 PM 83.3 °F 88.7 °F 72.3 °F 69% 29.87 in 10.0 mi SW 3.5 mph - N/A   Mostly Cloudy
4:35 PM 82.8 °F 88.2 °F 72.3 °F 71% 29.86 in 10.0 mi Calm Calm - N/A   Mostly Cloudy
4:55 PM 81.9 °F 87.0 °F 73.0 °F 74% 29.87 in 10.0 mi SSW 4.6 mph - N/A   Mostly Cloudy
5:15 PM 81.0 °F 85.2 °F 72.1 °F 74% 29.86 in 10.0 mi SW 4.6 mph - N/A   Scattered Clouds
5:35 PM 81.3 °F 86.3 °F 73.0 °F 76% 29.86 in 10.0 mi South 5.8 mph - N/A   Scattered Clouds
5:55 PM 81.5 °F 86.5 °F 72.9 °F 75% 29.86 in 10.0 mi Calm Calm - N/A   Clear
6:15 PM 82.0 °F 87.2 °F 72.7 °F 73% 29.86 in 10.0 mi Calm Calm - N/A   Clear
6:35 PM 82.2 °F 87.8 °F 73.0 °F 74% 29.87 in 10.0 mi East 3.5 mph - N/A Thunderstorm Thunderstorm
6:55 PM 81.7 °F 87.1 °F 73.4 °F 76% 29.86 in 10.0 mi NE 3.5 mph - N/A Thunderstorm Mostly Cloudy
7:55 PM 76.1 °F - 72.9 °F 90% 29.89 in 10.0 mi SSW 3.5 mph 17.3 mph N/A   Overcast
8:15 PM 75.0 °F - 71.8 °F 90% 29.90 in 10.0 mi Calm Calm - N/A   Scattered Clouds
8:54 PM 73.4 °F - 71.6 °F 94% 29.91 in 10.0 mi SSE 3.5 mph - N/A   Overcast
9:14 PM 73.4 °F - 69.8 °F 88% 29.91 in 10.0 mi Calm Calm - N/A   Overcast
9:34 PM 73.4 °F - 69.8 °F 88% 29.91 in 10.0 mi Calm Calm - N/A   Overcast
9:54 PM 73.4 °F - 69.8 °F 88% 29.92 in 10.0 mi Calm Calm - N/A   Overcast
10:14 PM 73.4 °F - 71.6 °F 94% 29.93 in 10.0 mi Calm Calm - N/A   Overcast
10:34 PM 75.2 °F - 66.2 °F 73% 29.93 in 10.0 mi Calm Calm - N/A   Overcast
10:54 PM 73.4 °F - 68.0 °F 83% 29.92 in 10.0 mi Calm Calm - N/A   Mostly Cloudy
11:16 PM 75.2 °F - 66.2 °F 73% 29.93 in 10.0 mi Calm Calm - N/A   Overcast
11:34 PM 73.4 °F - 68.0 °F 83% 29.93 in 10.0 mi Calm Calm - N/A   Overcast
11:54 PM 75.2 °F - 66.2 °F 73% 29.93 in 10.0 mi Calm Calm - N/A   Overcast